Location: Spruce Knob
(38.6995°N, 79.5330°W)
Time: 11:46:07
(UTC-05:00)

Envisat - Pass Details

Date: 02 December 2021
Orbit: 764 x 766 km, 98.2° (Epoch: 23 January)

Event Time Altitude Azimuth Distance (km) Brightness Sun altitude
Rises 05:08:29 0° 15° (NNE) 3,238 6.3 -24.8°
Reaches altitude 10° 05:10:49 10° 17° (NNE) 2,307 5.5 -24.3°
Maximum altitude 05:15:54 72° 102° (ESE) 806 3.2 -23.3°
Drops below altitude 10° 05:20:56 10° 186° (S) 2,290 5.5 -22.4°
Sets 05:23:14 0° 189° (S) 3,212 6.3 -21.9°
